Weather History for KD07 - October, 2013

Change the Weather History Date:

Friday, October 25, 2013

  Actual Average Record
Temperature  
Mean Temperature 49 °F 43 °F  
Max Temperature 69 °F 55 °F 75 °F (2007)
Min Temperature 29 °F 32 °F 21 °F (2002)
Degree Days  
Heating Degree Days 16 22  
Month to date heating degree days 512 428  
Since 1 July heating degree days 607 660  
Cooling Degree Days 0 0  
Month to date cooling degree days 0 0  
Year to date cooling degree days 720 634  
Moisture  
Dew Point 34 °F    
Average Humidity 62    
Maximum Humidity 89    
Minimum Humidity 35    
Precipitation  
Precipitation 0.00 in 0.06 in 0.13 in (2010)
Month to date precipitation 2.47 1.21  
Year to date precipitation 15.94 16.39  
Sea Level Pressure  
Sea Level Pressure 30.12 in    
Wind  
Wind Speed 14 mph (West)    
Max Wind Speed 22 mph    
Max Gust Speed 26 mph    
T = Trace of Precipitation, MM = Missing Value Source: NWS Daily Summary

Daily Weather History Graph

Daily Weather History Graph

Search for Another Location

Airport or City:

Trip Planner

Search our weather history database for the weather conditions in past years. The results will help you decide how hot, cold, wet, or windy it might be!

Date:

Astronomy

Oct. 25, 2013 Rise Set
Actual Time 7:17 AM MDT 5:46 PM MDT
Civil Twilight 6:47 AM MDT 6:16 PM MDT
Nautical Twilight 6:12 AM MDT 6:50 PM MDT
Astronomical Twilight 5:38 AM MDT 7:24 PM MDT
Moon 11:04 PM MDT (10/25) 1:03 PM MDT (10/25)
Length of Visible Light 11h 28m
Length of Day
10h 28m
Waning Gibbous, 62% of the Moon is Illuminated
Oct 25
Waning Gibbous
Oct 26
Last Quarter
Nov 3
New
Nov 9
First Quarter
Nov 17
Full

Hourly Weather History & Observations

Time (MDT) Temp. Windchill Dew Point Humidity Pressure Visibility Wind Dir Wind Speed Gust Speed Precip Events Conditions
12:56 AM 30.9 °F 19.8 °F 26.1 °F 82% 30.25 in - South 16.1 mph - N/A   Unknown
1:56 AM 30.0 °F 18.7 °F 26.1 °F 85% 30.23 in - South 16.1 mph - N/A   Unknown
2:56 AM 30.0 °F 18.3 °F 26.1 °F 85% 30.20 in - South 17.3 mph - N/A   Unknown
3:56 AM 30.0 °F 18.7 °F 26.1 °F 85% 30.17 in - South 16.1 mph - N/A   Unknown
4:56 AM 30.9 °F 19.4 °F 26.1 °F 82% 30.15 in - South 17.3 mph - N/A   Unknown
5:56 AM 30.9 °F 20.2 °F 27.0 °F 85% 30.17 in - South 15.0 mph - N/A   Unknown
6:56 AM 30.9 °F 19.8 °F 27.0 °F 85% 30.14 in - South 16.1 mph - N/A   Unknown
7:56 AM 33.1 °F 24.4 °F 30.0 °F 89% 30.12 in - SSW 11.5 mph - N/A   Unknown
8:56 AM 39.0 °F 34.0 °F 32.0 °F 76% 30.11 in - SW 6.9 mph - N/A   Unknown
9:56 AM 46.0 °F 42.5 °F 37.0 °F 71% 30.10 in - SW 6.9 mph - N/A   Unknown
10:56 AM 55.9 °F - 41.0 °F 57% 30.07 in - SW 8.1 mph - N/A   Unknown
11:56 AM 61.0 °F - 41.0 °F 48% 30.04 in - WSW 15.0 mph - N/A   Unknown
12:56 PM 66.0 °F - 41.0 °F 40% 30.01 in - West 11.5 mph - N/A   Unknown
1:56 PM 68.0 °F - 39.0 °F 35% 30.00 in - WNW 16.1 mph - N/A   Unknown
2:56 PM 68.0 °F - 42.1 °F 39% 29.99 in - WNW 12.7 mph - N/A   Unknown
3:56 PM 66.9 °F - 39.0 °F 36% 30.00 in - NNW 19.6 mph 23.0 mph N/A   Unknown
4:56 PM 63.0 °F - 41.0 °F 45% 30.03 in - NNW 13.8 mph - N/A   Unknown
5:56 PM 55.0 °F - 41.0 °F 59% 30.07 in - NNW 11.5 mph - N/A   Unknown
6:56 PM 51.1 °F - 39.0 °F 63% 30.12 in - NNW 12.7 mph - N/A   Unknown
7:56 PM 45.0 °F 39.7 °F 37.0 °F 74% 30.15 in - NW 10.4 mph - N/A   Unknown
8:56 PM 46.9 °F - 34.0 °F 61% 30.15 in - NW 15.0 mph - N/A   Unknown
9:56 PM 46.0 °F 39.3 °F 33.1 °F 61% 30.16 in - NW 16.1 mph - N/A   Unknown
10:56 PM 45.0 °F 37.9 °F 33.1 °F 63% 30.16 in - NW 16.1 mph - N/A   Unknown
11:56 PM 41.0 °F 33.5 °F 32.0 °F 70% 30.19 in - NW 13.8 mph - N/A   Unknown